Location: Unspecified
(48.7670°N, 0.0000°E)
Time: 09:58:28
(UTC+00:00)

Courier 1B - Pass Details

Date: 22 June 2019
Orbit: 963 x 1209 km, 28.3° (Epoch: 18 July)

Event Time Altitude Azimuth Distance (km) Brightness Sun altitude
Rises 18:28:59 0° 214° (SW) 3,850 10.8 13.2°
Reaches altitude 10° 18:34:00 10° 184° (S) 2,963 9.9 12.4°
Maximum altitude 18:36:15 12° 165° (SSE) 2,874 9.7 12.1°
Drops below altitude 10° 18:38:32 10° 147° (SSE) 3,020 9.6 11.7°
Sets 18:43:49 0° 118° (ESE) 4,039 10.1 10.9°
